Change the Weather History Date:

Wednesday, September 4, 2013

  Actual Average (KBPT) Record (KBPT)
Temperature  
Mean Temperature 84 °F 82 °F  
Max Temperature 93 °F 91 °F 105 °F (2000)
Min Temperature 76 °F 73 °F 55 °F (1952)
Degree Days  
Heating Degree Days 0 0  
Month to date heating degree days 0  
Since 1 July heating degree days 0  
Cooling Degree Days 20 17  
Month to date cooling degree days 68  
Year to date cooling degree days 2235  
Growing Degree Days 34 (Base 50)    
Moisture  
Dew Point 73 °F    
Average Humidity 67    
Maximum Humidity 100    
Minimum Humidity 51    
Precipitation  
Precipitation 0.00 in 0.21 in 4.20 in (1973)
Month to date precipitation 0.85  
Year to date precipitation 40.08  
Snow  
Snow 0.00 in 0.00 in 0.00 in ()
Month to date snowfall 0.0  
Since 1 July snowfall 0.0  
Since 1 September snowfall 0.0  
Snow Depth -    
Sea Level Pressure  
Sea Level Pressure 30.01 in    
Wind  
Wind Speed 3 mph (South)    
Max Wind Speed 12 mph    
Max Gust Speed -    
Visibility 10 miles    
Events Thunderstorm    
T = Trace of Precipitation, MM = Missing Value Source: NWS Daily Summary

Daily Weather History Graph

Daily Weather History Graph

Search for Another Location

Airport or City:

Trip Planner

Search our weather history database for the weather conditions in past years. The results will help you decide how hot, cold, wet, or windy it might be!

Date:

Astronomy

Sep. 04, 2013 Rise Set
Actual Time 6:55 AM CDT 7:35 PM CDT
Civil Twilight 6:31 AM CDT 7:59 PM CDT
Nautical Twilight 6:02 AM CDT 8:28 PM CDT
Astronomical Twilight 5:33 AM CDT 8:57 PM CDT
Moon 6:08 AM CDT (9/4) 6:58 PM CDT (9/4)
Length of Visible Light 13h 28m
Length of Day
12h 39m
Waning Crescent, 1% of the Moon is Illuminated
Sep 4
Waning Crescent
Sep 5
New
Sep 12
First Quarter
Sep 19
Full
Sep 26
Last Quarter

Hourly Weather History & Observations

Time (CDT) Temp. Heat Index Dew Point Humidity Pressure Visibility Wind Dir Wind Speed Gust Speed Precip Events Conditions
10:15 AM 92.1 °F 105.0 °F 76.3 °F 60% 30.05 in 10.0 mi North - - N/A   Scattered Clouds
10:35 AM - - - N/A% - - North - - N/A   Unknown
10:55 AM 87.3 °F 96.8 °F 75.0 °F 67% 30.06 in 10.0 mi Calm Calm - N/A   Scattered Clouds
11:15 AM 89.2 °F 97.9 °F 73.6 °F 60% 30.06 in 10.0 mi Calm Calm - N/A Thunderstorm Scattered Clouds
11:35 AM 89.4 °F 97.8 °F 73.2 °F 59% 30.06 in 10.0 mi WNW 3.5 mph - N/A   Scattered Clouds
11:55 AM 90.3 °F 97.7 °F 72.1 °F 55% 30.05 in 10.0 mi Calm Calm - N/A   Clear
12:15 PM 91.0 °F 98.2 °F 71.8 °F 53% 30.05 in 10.0 mi Calm Calm - N/A   Mostly Cloudy
12:35 PM 91.2 °F 98.5 °F 72.0 °F 53% 30.05 in 10.0 mi South 5.8 mph - N/A   Overcast
12:55 PM 87.8 °F 95.2 °F 72.9 °F 61% 30.05 in 10.0 mi South 9.2 mph - N/A   Overcast
1:15 PM 87.8 °F 97.6 °F 75.2 °F 66% 30.03 in 10.0 mi SSW 4.6 mph - N/A   Scattered Clouds
1:35 PM 90.7 °F 99.6 °F 73.8 °F 57% 30.02 in 10.0 mi SSE 3.5 mph - N/A   Clear
1:55 PM 91.8 °F 100.3 °F 73.0 °F 54% 30.01 in 10.0 mi Calm Calm - N/A   Clear
2:15 PM 93.4 °F 102.8 °F 73.2 °F 52% 30.01 in 10.0 mi SE 3.5 mph - N/A   Scattered Clouds
2:35 PM 91.8 °F 100.3 °F 73.2 °F 54% 30.00 in 10.0 mi West 4.6 mph - N/A   Mostly Cloudy
2:55 PM 92.8 °F 102.8 °F 73.8 °F 54% 29.99 in 10.0 mi SSW 9.2 mph - N/A   Overcast
3:15 PM 92.7 °F 101.1 °F 72.7 °F 52% 29.98 in 10.0 mi SE 4.6 mph - N/A   Scattered Clouds
3:35 PM 92.1 °F 101.1 °F 73.4 °F 54% 29.97 in 10.0 mi South 9.2 mph - N/A   Scattered Clouds
3:55 PM 93.7 °F 102.9 °F 72.9 °F 51% 29.97 in 10.0 mi South 11.5 mph - N/A   Scattered Clouds
4:15 PM 92.1 °F 100.5 °F 72.5 °F 53% 29.97 in 10.0 mi South 6.9 mph - N/A   Clear
4:35 PM 91.8 °F 99.1 °F 72.0 °F 52% 29.97 in 10.0 mi South 10.4 mph - N/A   Clear
4:55 PM 91.9 °F 100.1 °F 72.5 °F 53% 29.98 in 10.0 mi South 9.2 mph - N/A   Clear
5:15 PM 90.7 °F 97.9 °F 71.8 °F 54% 29.97 in 10.0 mi SSE 6.9 mph - N/A   Clear
5:35 PM 90.1 °F 96.8 °F 71.6 °F 54% 29.96 in 10.0 mi South 8.1 mph - N/A Thunderstorm Clear
5:55 PM 88.9 °F 94.2 °F 70.3 °F 54% 29.96 in 10.0 mi SSE 5.8 mph - N/A Thunderstorm Clear
6:15 PM 88.3 °F 94.5 °F 71.2 °F 57% 29.95 in 10.0 mi SSE 5.8 mph - N/A   Clear
6:35 PM 87.1 °F 93.6 °F 72.0 °F 61% 29.97 in 10.0 mi SSE 5.8 mph - N/A   Clear
6:55 PM 86.2 °F 92.6 °F 72.1 °F 63% 30.00 in 7.0 mi SSW 4.6 mph - N/A Thunderstorm Clear
7:15 PM 85.1 °F 91.5 °F 72.7 °F 66% 30.00 in 10.0 mi SSW 4.6 mph - N/A   Clear
7:35 PM 83.8 °F 89.8 °F 72.7 °F 69% 30.00 in 10.0 mi South 4.6 mph - N/A   Clear
7:55 PM 82.0 °F 87.7 °F 73.2 °F 75% 30.02 in 10.0 mi West 4.6 mph - N/A   Clear
8:15 PM 82.4 °F 87.9 °F 73.0 °F 73% 30.01 in 10.0 mi Calm Calm - N/A   Clear
8:35 PM 81.7 °F 86.9 °F 73.2 °F 75% 30.01 in 10.0 mi Calm Calm - N/A   Clear
8:55 PM 80.6 °F 85.4 °F 73.4 °F 79% 30.01 in 10.0 mi South 4.6 mph - N/A   Clear
9:15 PM 79.7 °F - 73.4 °F 81% 30.02 in 10.0 mi Calm Calm - N/A   Clear
9:35 PM 78.4 °F - 74.3 °F 87% 30.02 in 10.0 mi Calm Calm - N/A   Clear
9:55 PM 78.1 °F - 75.7 °F 92% 30.02 in 10.0 mi Calm Calm - N/A   Clear
10:15 PM 78.4 °F - 74.8 °F 89% 30.03 in 10.0 mi Calm Calm - N/A   Clear
10:35 PM 78.4 °F - 74.8 °F 89% 30.03 in 10.0 mi Calm Calm - N/A   Clear
10:55 PM 77.0 °F - 76.5 °F 98% 30.04 in 10.0 mi Calm Calm - N/A   Scattered Clouds
11:15 PM 76.8 °F - 76.5 °F 99% 30.04 in 10.0 mi Calm Calm - N/A   Clear
11:35 PM 76.3 °F - 76.3 °F 100% 30.03 in 10.0 mi Calm Calm - N/A   Clear
11:55 PM 77.2 °F - 77.0 °F 99% 30.04 in 10.0 mi ESE 3.5 mph - N/A   Clear